Pagrindinis puslapis
METAR-TAF:

METAR-TAF

Oro uostai :

Arasatuba, San Paulas, Brazilija

platuma: 21-08-39S, ilguma: 050-25-35W, Aukštis: 415 m

Dabartinis oras

Ataskaita buvo paskelbta 8 valandos ir 24 minutes, ne 10:00 UTC
Ramus vėjas
Temperatūra 25°C
Drėgmė 74%
Slėgis 1013 hPa
Matomumas 10 km arba daugiau
nėra debesų žemiau 1500 m ir nėra kamuolinių lietaus debesų

METAR: SBAU 171000Z 00000KT CAVOK 25/20 Q1013

Laikas: 15:24 (18:24 UTC)


TAF: trūkstamas

Orai ataskaitas ir orų prognozės (METAR, TAF).

turimą stotys yra geltonos ir raudonos taškus žemėlapyje.

Perkelti pele per norėdami pamatyti stoties vardą.

Tada spustelėkite, norėdami matyti oro stebėjimo ir prognozės.

Norėdami pakeisti žemėlapį: spustelėkite ant žalios mygtukų su juodo kryžiaus žemyn,; žalią mygtuką su brūkšneliu, jei norite nutolinti; arba žalių rodyklių gretimoms žemėlapius.


METAR-TAF: